"startDT [UTC]","vpos","CH4 [ppm]","stdev(CH4) [ppm]","CO2 [ppm]","stdev(CO2) [ppm]","H2O_reported [%]","stdev(H2O_reported)","CavityPressure [torr]","CavityTemp [C]","OutletValve","CH4_dry [ppm]","CO2_dry [ppm]","DasTemp [C]","EtalonTemp [C]","WarmBoxTemp [C]","MPVPosition","T_ECpre [C]","T_EC1 [C]","T_EC2 [C]","p_inlet [hPa]","p_in [hPa]","p_out [hPa]","T_inlet [C]","RH_inlet [%]","dwpt_inlet [C]","T_vent [C]","RH_vent [%]","dwpt_vent [C]","flow_vent [l min-1]","flow_inlet [l min-1]","dwpt_sample [C]","T_room [C]"
2015-11-26 00:00:00,0.0,1.91913,0.00036,401.804,0.032,0.1495,0.0019,139.999,45.000,31622.14989,1.92197,402.530,33.345,45.070,45.000,0.00,0.09,-272.74,-272.79,-6,520,-945,19.0,5.2,-21.0,19.2,5.2,-20.8,5.73,2.10,-15.4,25.5
2015-11-26 00:01:00,0.0,1.91928,0.00038,401.796,0.029,0.1496,0.0017,139.995,45.000,31619.80511,1.92211,402.521,33.361,45.070,45.000,0.00,0.09,-272.74,-272.80,-5,520,-945,19.0,5.2,-21.1,19.2,5.2,-20.9,5.73,1.85,-15.4,25.5
2015-11-26 00:02:00,0.0,1.91927,0.00039,401.804,0.031,0.1490,0.0014,139.996,45.000,31620.57438,1.92210,402.526,33.375,45.070,45.000,0.00,0.09,-272.75,-272.80,-4,520,-945,19.0,5.2,-21.1,19.2,5.2,-20.9,5.73,1.90,-15.4,25.5
2015-11-26 00:03:00,0.0,1.91910,0.00037,401.788,0.040,0.1493,0.0013,139.998,45.000,31622.02067,1.92194,402.511,33.375,45.070,45.000,0.00,0.09,-272.75,-272.79,-5,520,-945,19.0,5.2,-21.1,19.2,5.2,-20.9,5.73,2.14,-15.3,25.5
2015-11-26 00:04:00,0.0,1.91934,0.00031,401.808,0.032,0.1487,0.0018,139.997,45.000,31621.13526,1.92213,402.530,33.362,45.070,45.000,0.00,0.09,-272.74,-272.80,-6,520,-945,19.0,5.2,-21.1,19.2,5.2,-20.8,5.73,2.07,-15.4,25.5
2015-11-26 00:05:00,0.0,1.91959,0.00029,401.819,0.033,0.1499,0.0016,139.998,45.000,31621.91065,1.92244,402.544,33.332,45.070,45.000,0.00,0.09,-272.74,-272.81,-6,520,-945,19.0,5.2,-21.1,19.2,5.2,-20.9,5.73,1.84,-15.3,25.5
2015-11-26 00:06:00,0.0,1.91962,0.00033,401.807,0.031,0.1490,0.0022,139.998,45.000,31621.37260,1.92243,402.530,33.317,45.070,45.000,0.00,0.09,-272.75,-272.81,-5,521,-945,19.1,5.2,-21.1,19.3,5.2,-20.8,5.73,1.92,-15.3,25.5
2015-11-26 00:07:00,0.0,1.91935,0.00033,401.817,0.026,0.1484,0.0015,139.999,45.000,31623.05935,1.92218,402.536,33.312,45.070,45.001,0.00,0.09,-272.75,-272.80,-4,520,-945,19.1,5.1,-21.1,19.3,5.2,-20.9,5.73,2.15,-15.3,25.5
2015-11-26 00:08:00,0.0,1.91963,0.00039,401.836,0.028,0.1482,0.0018,139.999,45.000,31621.94564,1.92240,402.554,33.306,45.070,45.000,0.00,0.09,-272.75,-272.81,-5,520,-945,19.1,5.1,-21.2,19.3,5.2,-21.0,5.73,2.06,-15.3,25.5
2015-11-26 00:09:00,0.0,1.91955,0.00043,401.831,0.040,0.1479,0.0019,139.999,45.000,31621.26058,1.92237,402.549,33.303,45.070,45.001,0.00,0.09,-272.75,-272.81,-6,520,-945,19.1,5.1,-21.2,19.3,5.1,-21.0,5.73,1.84,-15.3,25.5
2015-11-26 00:10:00,0.0,1.91917,0.00034,401.816,0.033,0.1482,0.0017,140.000,45.000,31622.74062,1.92201,402.535,33.309,45.070,45.001,0.00,0.09,-272.75,-272.80,-6,520,-945,19.1,5.1,-21.2,19.3,5.2,-21.0,5.73,1.91,-15.3,25.5
2015-11-26 00:11:00,0.0,1.91946,0.00045,401.843,0.027,0.1497,0.0013,139.997,45.000,31621.16790,1.92227,402.568,33.309,45.070,45.001,0.00,0.09,-272.75,-272.80,-6,520,-945,19.1,5.1,-21.1,19.3,5.2,-20.9,5.73,2.13,-15.4,25.5
2015-11-26 00:12:00,0.0,1.91938,0.00032,401.849,0.028,0.1480,0.0017,140.000,45.000,31623.05591,1.92217,402.566,33.306,45.070,45.001,0.00,0.09,-272.75,-272.81,-5,520,-945,19.1,5.1,-21.1,19.3,5.2,-20.9,5.73,2.08,-15.3,25.5
2015-11-26 00:13:00,0.0,1.91974,0.00037,401.857,0.026,0.1499,0.0019,139.998,45.000,31622.53087,1.92256,402.583,33.313,45.070,45.000,0.00,0.09,-272.74,-272.81,-5,520,-945,19.1,5.1,-21.1,19.3,5.2,-20.9,5.73,1.85,-15.3,25.6
2015-11-26 00:14:00,0.0,1.91962,0.00044,401.838,0.050,0.1498,0.0016,139.997,45.001,31621.62366,1.92247,402.566,33.315,45.070,45.000,0.00,0.09,-272.74,-272.80,-6,520,-945,19.1,5.2,-21.0,19.3,5.2,-20.9,5.73,1.90,-15.3,25.6
2015-11-26 00:15:00,0.0,1.91951,0.00046,401.805,0.033,0.1510,0.0021,139.999,45.000,31621.61953,1.92240,402.536,33.340,45.070,45.000,0.00,0.09,-272.75,-272.80,-6,520,-945,19.1,5.2,-21.0,19.3,5.2,-20.8,5.73,2.14,-15.3,25.5
2015-11-26 00:16:00,0.0,1.91938,0.00043,401.789,0.030,0.1499,0.0017,139.997,45.000,31619.57275,1.92223,402.516,33.373,45.070,45.000,0.00,0.08,-272.75,-272.80,-6,520,-945,19.1,5.2,-21.0,19.3,5.3,-20.8,5.73,2.07,-15.3,25.5
2015-11-26 00:17:00,0.0,1.91948,0.00026,401.818,0.033,0.1518,0.0014,139.999,45.000,31618.20125,1.92233,402.554,33.420,45.070,45.000,0.00,0.09,-272.73,-272.79,-5,520,-945,19.1,5.2,-20.9,19.3,5.3,-20.7,5.73,1.83,-15.3,25.6
2015-11-26 00:18:00,0.0,1.91946,0.00029,401.811,0.030,0.1516,0.0014,139.998,45.000,31618.60939,1.92235,402.545,33.438,45.069,44.999,0.00,0.09,-272.75,-272.80,-5,520,-945,19.1,5.2,-20.9,19.3,5.3,-20.7,5.73,1.93,-15.3,25.6
2015-11-26 00:19:00,0.0,1.91936,0.00032,401.782,0.028,0.1536,0.0016,140.001,45.000,31620.25706,1.92228,402.527,33.435,45.069,44.999,0.00,0.09,-272.75,-272.81,-6,520,-945,19.1,5.3,-20.8,19.3,5.3,-20.6,5.73,2.15,-15.3,25.6
2015-11-26 00:20:00,0.0,1.91947,0.00037,401.788,0.040,0.1531,0.0018,139.999,45.000,31620.70081,1.92235,402.531,33.434,45.069,44.999,0.00,0.09,-272.74,-272.81,-6,520,-945,19.1,5.3,-20.8,19.3,5.3,-20.6,5.73,2.04,-15.3,25.6
2015-11-26 00:21:00,0.0,1.91921,0.00040,401.763,0.031,0.1530,0.0019,139.999,45.000,31622.36200,1.92211,402.504,33.435,45.069,44.999,0.00,0.09,-272.74,-272.81,-6,520,-945,19.1,5.3,-20.8,19.3,5.3,-20.6,5.73,1.83,-15.3,25.5
2015-11-26 00:22:00,0.0,1.91931,0.00040,401.795,0.025,0.1495,0.0018,139.999,45.000,31621.32158,1.92214,402.519,33.437,45.069,44.999,0.00,0.09,-272.75,-272.80,-5,520,-945,19.1,5.2,-21.0,19.3,5.3,-20.7,5.73,1.94,-15.3,25.6
2015-11-26 00:23:00,0.0,1.91921,0.00031,401.784,0.027,0.1507,0.0022,139.999,45.000,31621.39447,1.92206,402.514,33.437,45.069,45.000,0.00,0.09,-272.75,-272.80,-5,520,-945,19.1,5.2,-21.0,19.3,5.2,-20.8,5.73,2.15,-15.3,25.5
2015-11-26 00:24:00,0.0,1.91941,0.00044,401.794,0.028,0.1524,0.0020,139.999,45.000,31621.52826,1.92232,402.532,33.439,45.069,45.000,0.00,0.09,-272.74,-272.80,-6,520,-945,19.1,5.3,-20.8,19.3,5.3,-20.7,5.73,2.03,-15.3,25.6
2015-11-26 00:25:00,0.0,1.91951,0.00048,401.794,0.026,0.1526,0.0016,139.998,45.000,31621.91088,1.92238,402.533,33.445,45.070,45.000,0.00,0.09,-272.75,-272.80,-6,520,-945,19.1,5.3,-20.8,19.3,5.3,-20.6,5.73,1.83,-15.3,25.6
2015-11-26 00:26:00,0.0,1.91953,0.00048,401.800,0.033,0.1530,0.0015,139.997,45.000,31623.36076,1.92242,402.540,33.451,45.070,45.000,0.00,0.09,-272.75,-272.80,-6,520,-945,19.1,5.3,-20.8,19.3,5.3,-20.6,5.73,1.95,-15.3,25.5
2015-11-26 00:27:00,0.0,1.91971,0.00033,401.826,0.031,0.1516,0.0019,140.001,45.000,31623.78671,1.92260,402.562,33.456,45.070,45.000,0.00,0.09,-272.75,-272.79,-5,520,-945,19.1,5.2,-20.9,19.3,5.3,-20.7,5.73,2.15,-15.3,25.6
2015-11-26 00:28:00,0.0,1.91933,0.00023,401.784,0.028,0.1518,0.0014,139.999,45.000,31624.33320,1.92220,402.520,33.467,45.070,45.000,0.00,0.09,-272.74,-272.81,-5,520,-945,19.1,5.2,-20.9,19.3,5.3,-20.7,5.73,2.03,-15.3,25.5
2015-11-26 00:29:00,0.0,1.91938,0.00028,401.788,0.037,0.1495,0.0027,139.997,45.000,31623.29508,1.92222,402.513,33.475,45.070,45.000,0.00,0.09,-272.74,-272.81,-5,520,-945,19.1,5.1,-21.1,19.3,5.2,-20.8,5.73,1.83,-15.3,25.5
2015-11-26 00:30:00,0.0,1.91958,0.00033,401.809,0.036,0.1468,0.0016,140.002,45.000,31624.30904,1.92233,402.520,33.443,45.070,45.000,0.00,0.09,-272.74,-272.80,-6,520,-945,19.1,5.0,-21.3,19.3,5.1,-21.0,5.73,1.95,-15.3,25.5
2015-11-26 00:31:00,0.0,1.91944,0.00041,401.820,0.033,0.1475,0.0014,139.998,45.000,31624.08589,1.92226,402.534,33.438,45.070,45.000,0.00,0.09,-272.74,-272.79,-6,520,-945,19.1,5.1,-21.2,19.3,5.1,-21.1,5.73,2.15,-15.3,25.5
2015-11-26 00:32:00,0.0,1.91949,0.00040,401.811,0.028,0.1488,0.0013,139.998,45.000,31621.56547,1.92230,402.532,33.436,45.070,45.000,0.00,0.09,-272.75,-272.81,-6,520,-945,19.1,5.1,-21.2,19.3,5.1,-21.0,5.73,2.04,-15.3,25.6
2015-11-26 00:33:00,0.0,1.91940,0.00030,401.801,0.033,0.1484,0.0018,139.999,45.000,31623.51802,1.92222,402.521,33.426,45.070,45.000,0.00,0.09,-272.74,-272.81,-5,520,-945,19.1,5.1,-21.2,19.3,5.1,-21.0,5.73,1.84,-15.3,25.6
2015-11-26 00:34:00,0.0,1.91936,0.00035,401.783,0.040,0.1486,0.0015,139.999,45.000,31624.12461,1.92217,402.503,33.420,45.070,45.001,0.00,0.09,-272.75,-272.80,-5,520,-945,19.2,5.1,-21.1,19.3,5.2,-20.9,5.73,1.91,-15.3,25.6
2015-11-26 00:35:00,0.0,1.91953,0.00030,401.778,0.038,0.1456,0.0022,139.997,45.000,31620.97929,1.92227,402.484,33.412,45.070,45.000,0.00,0.09,-272.75,-272.80,-6,520,-945,19.1,5.1,-21.3,19.3,5.1,-21.1,5.73,2.11,-15.3,25.6
2015-11-26 00:36:00,0.0,1.91915,0.00046,401.767,0.031,0.1457,0.0019,139.999,45.000,31624.81793,1.92193,402.472,33.381,45.070,45.001,0.00,0.09,-272.75,-272.81,-6,520,-945,19.1,5.0,-21.3,19.3,5.1,-21.1,5.73,2.10,-15.3,25.6
2015-11-26 00:37:00,0.0,1.91905,0.00044,401.781,0.036,0.1475,0.0015,140.002,45.000,31622.10873,1.92185,402.496,33.378,45.070,45.000,0.00,0.09,-272.74,-272.80,-6,520,-945,19.1,5.1,-21.2,19.3,5.1,-21.0,5.73,1.86,-15.3,25.6
2015-11-26 00:38:00,0.0,1.91916,0.00039,401.776,0.032,0.1484,0.0016,139.999,45.000,31622.96434,1.92197,402.495,33.387,45.070,45.000,0.00,0.09,-272.74,-272.79,-6,520,-945,19.1,5.1,-21.2,19.3,5.1,-21.0,5.73,1.88,-15.3,25.6
2015-11-26 00:39:00,0.0,1.91912,0.00033,401.751,0.026,0.1464,0.0018,139.998,45.000,31623.27302,1.92190,402.461,33.413,45.070,45.000,0.00,0.09,-272.76,-272.80,-5,520,-945,19.1,5.1,-21.3,19.3,5.1,-21.0,5.73,2.10,-15.3,25.6
2015-11-26 00:40:00,0.0,1.91916,0.00035,401.764,0.032,0.1445,0.0019,140.000,45.000,31624.39671,1.92188,402.463,33.435,45.070,45.000,0.00,0.09,-272.75,-272.80,-5,520,-945,19.1,5.0,-21.4,19.3,5.1,-21.2,5.73,2.11,-15.3,25.6
2015-11-26 00:41:00,0.0,1.91919,0.00027,401.787,0.032,0.1461,0.0011,139.998,45.000,31622.75736,1.92197,402.495,33.438,45.069,45.000,0.00,0.09,-272.74,-272.80,-6,520,-945,19.1,5.0,-21.4,19.3,5.1,-21.2,5.73,1.88,-15.3,25.6
2015-11-26 00:42:00,0.0,1.91935,0.00043,401.807,0.026,0.1454,0.0018,139.999,45.000,31621.94685,1.92214,402.511,33.422,45.069,44.999,0.00,0.09,-272.75,-272.80,-6,520,-945,19.0,5.0,-21.4,19.3,5.0,-21.2,5.73,1.86,-15.3,25.5
2015-11-26 00:43:00,0.0,1.91934,0.00033,401.790,0.030,0.1454,0.0014,139.997,45.000,31621.82432,1.92206,402.494,33.398,45.069,45.000,0.00,0.09,-272.75,-272.80,-6,520,-945,19.1,5.1,-21.3,19.3,5.1,-21.1,5.73,2.10,-15.3,25.6
2015-11-26 00:44:00,0.0,1.91910,0.00038,401.796,0.032,0.1467,0.0018,139.999,45.001,31622.89489,1.92190,402.508,33.377,45.069,45.000,0.00,0.09,-272.75,-272.80,-5,520,-945,19.0,5.1,-21.2,19.3,5.1,-21.1,5.73,2.11,-15.3,25.6
2015-11-26 00:45:00,0.0,1.91914,0.00029,401.781,0.033,0.1482,0.0014,139.999,45.001,31623.31874,1.92195,402.500,33.383,45.069,45.000,0.00,0.09,-272.74,-272.80,-6,520,-945,19.1,5.1,-21.2,19.3,5.1,-21.0,5.73,1.88,-15.3,25.6
2015-11-26 00:46:00,0.0,1.91931,0.00029,401.801,0.032,0.1482,0.0018,139.999,45.000,31623.37428,1.92208,402.519,33.388,45.070,45.000,0.00,0.09,-272.75,-272.80,-6,520,-945,19.0,5.1,-21.2,19.3,5.1,-21.0,5.73,1.87,-15.3,25.6
2015-11-26 00:47:00,0.0,1.91920,0.00027,401.816,0.032,0.1464,0.0017,139.999,44.999,31620.37330,1.92199,402.526,33.405,45.070,45.000,0.00,0.09,-272.75,-272.80,-6,520,-945,19.0,5.1,-21.3,19.3,5.1,-21.0,5.73,2.09,-15.3,25.6
2015-11-26 00:48:00,0.0,1.91941,0.00053,401.808,0.023,0.1472,0.0022,139.999,45.000,31615.93870,1.92219,402.520,33.385,45.069,45.000,0.00,0.09,-272.75,-272.81,-6,520,-944,19.0,5.1,-21.3,19.3,5.1,-21.1,5.73,2.12,-15.3,25.6
2015-11-26 00:49:00,0.0,1.91912,0.00049,401.793,0.030,0.1462,0.0021,140.000,44.999,31621.20065,1.92188,402.501,33.379,45.070,45.000,0.00,0.09,-272.75,-272.81,-5,520,-945,19.0,5.1,-21.3,19.3,5.1,-21.1,5.73,1.88,-15.3,25.6
2015-11-26 00:50:00,0.0,1.91936,0.00040,401.810,0.025,0.1468,0.0019,139.999,44.999,31619.39552,1.92214,402.520,33.372,45.070,45.000,0.00,0.09,-272.75,-272.80,-5,520,-945,19.0,5.1,-21.3,19.3,5.1,-21.1,5.73,1.86,-15.3,25.6
2015-11-26 00:51:00,0.0,1.91923,0.00034,401.808,0.035,0.1474,0.0022,139.998,45.000,31619.52153,1.92200,402.524,33.345,45.070,45.000,0.00,0.09,-272.75,-272.80,-6,520,-945,19.0,5.1,-21.3,19.3,5.1,-21.0,5.73,2.08,-15.3,25.5
2015-11-26 00:52:00,0.0,1.91922,0.00032,401.807,0.031,0.1472,0.0015,140.000,45.000,31620.35204,1.92203,402.519,33.313,45.070,45.000,0.00,0.09,-272.75,-272.81,-6,520,-945,19.0,5.1,-21.2,19.3,5.1,-21.0,5.73,2.13,-15.3,25.6
2015-11-26 00:53:00,0.0,1.91924,0.00034,401.749,0.045,0.1473,0.0023,140.000,45.000,31619.10317,1.92203,402.464,33.313,45.070,45.001,0.00,0.09,-272.75,-272.81,-6,520,-945,19.1,5.1,-21.2,19.3,5.1,-21.0,5.73,1.92,-15.3,25.6
2015-11-26 00:54:00,0.0,1.91904,0.00042,401.770,0.029,0.1469,0.0018,140.001,45.000,31617.87847,1.92183,402.481,33.311,45.070,45.001,0.00,0.09,-272.74,-272.80,-5,520,-945,19.1,5.1,-21.2,19.3,5.1,-21.0,5.73,1.84,-15.3,25.6
2015-11-26 00:55:00,0.0,1.91924,0.00036,401.784,0.027,0.1457,0.0016,139.998,45.001,31618.21769,1.92197,402.489,33.297,45.070,45.001,0.00,0.09,-272.75,-272.80,-5,520,-945,19.1,5.1,-21.3,19.3,5.1,-21.1,5.73,2.04,-15.3,25.5
2015-11-26 00:56:00,0.0,1.91917,0.00039,401.794,0.031,0.1462,0.0018,139.999,45.001,31620.45034,1.92196,402.503,33.313,45.070,45.000,0.00,0.09,-272.75,-272.81,-5,520,-945,19.0,5.0,-21.4,19.3,5.1,-21.2,5.73,2.15,-15.3,25.6
2015-11-26 00:57:00,0.0,1.91920,0.00031,401.783,0.045,0.1457,0.0020,139.998,45.001,31620.58530,1.92195,402.489,33.294,45.070,45.000,0.00,0.09,-272.74,-272.81,-6,520,-945,19.1,5.1,-21.3,19.3,5.1,-21.1,5.73,1.96,-15.3,25.5
2015-11-26 00:58:00,0.0,1.91895,0.00037,401.722,0.047,0.1474,0.0025,140.000,45.000,31621.73964,1.92175,402.438,33.270,45.070,45.000,0.00,0.09,-272.74,-272.81,-6,520,-945,19.1,5.1,-21.2,19.3,5.1,-21.1,5.73,1.83,-15.3,25.5
2015-11-26 00:59:00,0.0,1.91896,0.00039,401.741,0.040,0.1487,0.0023,140.000,45.000,31621.92718,1.92179,402.460,33.251,45.070,45.000,0.00,0.09,-272.75,-272.81,-6,520,-945,19.0,5.2,-21.1,19.3,5.1,-21.0,5.73,1.99,-15.3,25.6
2015-11-26 01:00:00,0.0,1.91912,0.00039,401.768,0.033,0.1457,0.0016,139.999,45.000,31621.07370,1.92189,402.473,33.250,45.070,45.000,0.00,0.09,-272.75,-272.81,-5,520,-945,19.0,5.1,-21.3,19.2,5.1,-21.1,5.73,2.16,-15.3,25.6
2015-11-26 01:01:00,0.0,1.91921,0.00043,401.764,0.040,0.1449,0.0017,139.998,45.000,31620.13413,1.92193,402.467,33.250,45.070,45.000,0.00,0.09,-272.74,-272.80,-5,520,-945,19.0,5.0,-21.4,19.3,5.1,-21.2,5.73,2.00,-15.3,25.6
2015-11-26 01:02:00,0.0,1.91906,0.00035,401.748,0.032,0.1467,0.0021,139.998,44.999,31618.51780,1.92185,402.458,33.250,45.070,45.000,0.00,0.09,-272.74,-272.81,-6,520,-945,19.0,5.1,-21.3,19.3,5.1,-21.2,5.73,1.82,-15.3,25.6
2015-11-26 01:03:00,0.0,1.91924,0.00035,401.749,0.031,0.1499,0.0015,140.000,44.999,31617.34778,1.92208,402.476,33.258,45.070,45.000,0.00,0.09,-272.75,-272.80,-6,520,-945,19.0,5.2,-21.1,19.3,5.2,-21.0,5.73,1.96,-15.3,25.5
2015-11-26 01:04:00,0.0,1.91886,0.00032,401.729,0.024,0.1506,0.0023,139.997,45.000,31617.83434,1.92170,402.458,33.296,45.070,45.000,0.00,0.09,-272.75,-272.80,-6,520,-944,19.0,5.2,-21.0,19.3,5.2,-20.8,5.73,2.15,-15.4,25.5
2015-11-26 01:05:00,0.0,1.91880,0.00036,401.709,0.024,0.1484,0.0018,139.999,45.000,31616.64482,1.92164,402.428,33.313,45.069,45.000,0.00,0.09,-272.74,-272.80,-5,520,-944,19.0,5.2,-21.1,19.2,5.2,-20.9,5.73,2.03,-15.4,25.5
2015-11-26 01:06:00,0.0,1.91863,0.00040,401.700,0.032,0.1495,0.0021,139.998,45.000,31615.60535,1.92142,402.426,33.310,45.069,45.000,0.00,0.09,-272.75,-272.81,-5,520,-944,19.0,5.2,-21.0,19.3,5.2,-20.8,5.73,1.82,-15.4,25.5
2015-11-26 01:07:00,0.0,1.91889,0.00043,401.691,0.047,0.1511,0.0015,139.999,45.000,31616.07850,1.92175,402.421,33.272,45.069,44.999,0.00,0.09,-272.75,-272.80,-5,520,-944,19.0,5.2,-21.0,19.3,5.2,-20.8,5.73,1.94,-15.3,25.6
2015-11-26 01:08:00,0.0,1.91943,0.00030,401.763,0.042,0.1482,0.0015,140.000,45.000,31616.64166,1.92221,402.479,33.255,45.070,45.000,0.00,0.09,-272.74,-272.80,-6,520,-945,19.0,5.2,-21.1,19.2,5.2,-20.9,5.73,2.14,-15.3,25.5
2015-11-26 01:09:00,0.0,1.91981,0.00042,401.786,0.025,0.1465,0.0022,140.001,45.000,31614.14679,1.92262,402.497,33.250,45.070,45.000,0.00,0.08,-272.74,-272.80,-6,520,-945,19.0,5.1,-21.3,19.3,5.1,-21.0,5.73,2.05,-15.4,25.6
2015-11-26 01:10:00,0.0,1.91949,0.00032,401.758,0.038,0.1474,0.0016,140.000,45.000,31612.93246,1.92228,402.472,33.260,45.070,45.000,0.00,0.09,-272.74,-272.81,-6,520,-944,19.0,5.1,-21.2,19.2,5.1,-21.1,5.73,1.84,-15.4,25.5
2015-11-26 01:11:00,0.0,1.91914,0.00037,401.734,0.044,0.1497,0.0018,139.999,45.000,31613.26054,1.92199,402.461,33.297,45.070,45.000,0.00,0.09,-272.74,-272.79,-5,520,-944,19.0,5.2,-21.0,19.3,5.2,-20.9,5.73,1.91,-15.4,25.5
2015-11-26 01:12:00,0.0,1.91901,0.00028,401.757,0.057,0.1519,0.0021,140.001,45.000,31613.53909,1.92188,402.491,33.313,45.070,45.000,0.00,0.09,-272.75,-272.80,-5,520,-944,19.0,5.3,-20.9,19.3,5.3,-20.8,5.73,2.13,-15.4,25.5
2015-11-26 01:13:00,0.0,1.91937,0.00038,401.809,0.053,0.1498,0.0020,139.998,45.000,31612.61612,1.92217,402.534,33.313,45.069,45.000,0.00,0.09,-272.75,-272.81,-6,520,-944,19.0,5.2,-21.1,19.3,5.2,-20.8,5.73,2.07,-15.4,25.6
2015-11-26 01:14:00,0.0,1.91928,0.00027,401.809,0.033,0.1486,0.0016,139.999,45.000,31612.76673,1.92212,402.530,33.315,45.069,44.999,0.00,0.09,-272.74,-272.80,-6,520,-944,19.0,5.2,-21.1,19.3,5.2,-20.9,5.73,1.84,-15.4,25.5
2015-11-26 01:15:00,0.0,1.91938,0.00040,401.772,0.072,0.1508,0.0026,139.998,45.000,31613.22288,1.92222,402.501,33.313,45.069,44.999,0.00,0.09,-272.74,-272.80,-6,520,-944,19.0,5.2,-21.0,19.3,5.2,-20.8,5.73,1.91,-15.4,25.5
2015-11-26 01:16:00,0.0,1.91929,0.00042,401.803,0.030,0.1482,0.0023,140.001,45.000,31613.31521,1.92211,402.522,33.314,45.069,45.000,0.00,0.09,-272.76,-272.81,-5,520,-944,19.0,5.2,-21.1,19.3,5.2,-20.9,5.73,2.13,-15.4,25.5
2015-11-26 01:17:00,0.0,1.91932,0.00037,401.832,0.027,0.1472,0.0020,139.999,45.000,31615.28818,1.92210,402.545,33.312,45.069,45.000,0.00,0.09,-272.75,-272.81,-5,520,-945,19.0,5.1,-21.2,19.3,5.1,-21.0,5.73,2.08,-15.4,25.5
2015-11-26 01:18:00,0.0,1.91949,0.00041,401.828,0.036,0.1492,0.0013,139.999,45.000,31617.43108,1.92233,402.551,33.313,45.070,45.000,0.00,0.09,-272.74,-272.80,-6,520,-945,19.0,5.2,-21.2,19.3,5.2,-21.0,5.73,1.86,-15.4,25.5
2015-11-26 01:19:00,0.0,1.91940,0.00034,401.834,0.034,0.1501,0.0018,140.001,45.000,31617.03651,1.92224,402.560,33.313,45.070,45.000,0.00,0.09,-272.75,-272.80,-6,520,-944,19.0,5.2,-21.1,19.3,5.2,-20.9,5.73,1.88,-15.4,25.6
2015-11-26 01:20:00,0.0,1.91959,0.00031,401.835,0.037,0.1484,0.0014,139.998,45.000,31615.56232,1.92241,402.554,33.322,45.070,45.000,0.00,0.09,-272.75,-272.80,-6,520,-945,19.0,5.2,-21.1,19.3,5.2,-20.9,5.73,2.11,-15.4,25.5
2015-11-26 01:21:00,0.0,1.91924,0.00039,401.774,0.040,0.1495,0.0019,139.998,45.000,31616.19512,1.92209,402.501,33.354,45.070,45.000,0.00,0.09,-272.74,-272.80,-5,520,-944,19.0,5.2,-21.1,19.2,5.2,-20.9,5.73,2.11,-15.4,25.5
2015-11-26 01:22:00,0.0,1.91932,0.00038,401.826,0.049,0.1491,0.0019,139.999,45.000,31615.15847,1.92212,402.546,33.339,45.070,45.000,0.00,0.09,-272.74,-272.80,-5,520,-944,19.0,5.2,-21.1,19.3,5.2,-20.8,5.73,1.89,-15.4,25.5
2015-11-26 01:23:00,0.0,1.91931,0.00029,401.790,0.032,0.1502,0.0020,140.002,45.000,31616.44675,1.92217,402.519,33.329,45.070,45.000,0.00,0.09,-272.75,-272.80,-5,520,-944,19.0,5.2,-21.1,19.2,5.2,-20.9,5.73,1.86,-15.4,25.5
2015-11-26 01:24:00,0.0,1.91938,0.00030,401.826,0.035,0.1493,0.0017,140.000,45.000,31615.97370,1.92219,402.550,33.313,45.070,45.000,0.00,0.09,-272.75,-272.80,-6,520,-944,19.0,5.2,-21.1,19.3,5.2,-20.9,5.73,2.06,-15.4,25.5
2015-11-26 01:25:00,0.0,1.91929,0.00030,401.829,0.032,0.1476,0.0019,140.000,45.000,31614.28114,1.92211,402.546,33.291,45.070,45.000,0.00,0.09,-272.74,-272.80,-6,520,-944,19.0,5.1,-21.2,19.3,5.2,-21.0,5.73,2.14,-15.4,25.5
2015-11-26 01:26:00,0.0,1.91897,0.00033,401.797,0.033,0.1490,0.0015,140.000,45.000,31618.79173,1.92180,402.519,33.279,45.070,45.001,0.00,0.09,-272.75,-272.81,-6,520,-944,19.0,5.2,-21.1,19.3,5.2,-20.9,5.73,1.96,-15.4,25.5
2015-11-26 01:27:00,0.0,1.91898,0.00040,401.774,0.024,0.1491,0.0015,140.002,45.000,31619.74196,1.92179,402.497,33.287,45.070,45.000,0.00,0.09,-272.74,-272.81,-5,520,-945,19.0,5.2,-21.1,19.3,5.2,-20.9,5.73,1.83,-15.4,25.5
2015-11-26 01:28:00,0.0,1.91898,0.00029,401.777,0.030,0.1484,0.0017,140.001,45.000,31619.28502,1.92181,402.496,33.311,45.070,45.000,0.00,0.09,-272.75,-272.80,-5,520,-944,19.0,5.2,-21.1,19.3,5.2,-20.9,5.73,1.99,-15.4,25.5
2015-11-26 01:29:00,0.0,1.91887,0.00034,401.764,0.043,0.1494,0.0018,139.999,45.000,31618.92990,1.92168,402.487,33.309,45.070,45.000,0.00,0.09,-272.75,-272.80,-5,520,-944,19.0,5.2,-21.1,19.3,5.2,-20.9,5.73,2.15,-15.4,25.5
2015-11-26 01:30:00,0.0,1.91884,0.00040,401.730,0.059,0.1498,0.0023,140.000,45.000,31618.75454,1.92171,402.457,33.312,45.070,45.000,0.00,0.09,-272.75,-272.81,-6,520,-944,19.0,5.2,-21.0,19.3,5.2,-20.8,5.73,2.02,-15.4,25.5
2015-11-26 01:31:00,0.0,1.91885,0.00039,401.727,0.061,0.1510,0.0028,139.998,45.000,31618.44147,1.92168,402.458,33.312,45.070,45.000,0.00,0.09,-272.74,-272.79,-6,520,-945,19.0,5.2,-21.0,19.3,5.3,-20.7,5.73,1.83,-15.4,25.5
2015-11-26 01:32:00,0.0,1.91881,0.00025,401.729,0.027,0.1491,0.0019,139.998,45.000,31616.81366,1.92165,402.452,33.313,45.070,45.000,0.00,0.09,-272.75,-272.80,-6,520,-945,19.0,5.2,-21.1,19.2,5.2,-20.9,5.73,1.96,-15.4,25.5
2015-11-26 01:33:00,0.0,1.91880,0.00031,401.723,0.040,0.1511,0.0015,139.997,45.000,31616.11111,1.92165,402.456,33.309,45.070,45.000,0.00,0.09,-272.76,-272.80,-5,520,-944,19.0,5.3,-20.9,19.2,5.3,-20.8,5.73,2.14,-15.4,25.5
2015-11-26 01:34:00,0.0,1.91889,0.00039,401.732,0.045,0.1526,0.0015,139.998,45.000,31614.08738,1.92178,402.470,33.317,45.070,45.000,0.00,0.09,-272.74,-272.81,-5,520,-944,19.0,5.3,-20.8,19.2,5.3,-20.6,5.73,2.04,-15.4,25.5
2015-11-26 01:35:00,0.0,1.91920,0.00038,401.713,0.043,0.1518,0.0015,139.999,45.000,31612.05096,1.92208,402.450,33.318,45.070,45.000,0.00,0.09,-272.74,-272.80,-6,519,-944,19.0,5.3,-20.8,19.2,5.3,-20.6,5.73,1.83,-15.4,25.5
2015-11-26 01:36:00,0.0,1.91887,0.00051,401.674,0.037,0.1538,0.0016,139.999,45.000,31611.32125,1.92177,402.419,33.312,45.070,45.000,0.00,0.09,-272.75,-272.81,-6,520,-944,19.0,5.4,-20.7,19.2,5.4,-20.6,5.73,1.94,-15.4,25.5
2015-11-26 01:37:00,0.0,1.91895,0.00040,401.667,0.045,0.1539,0.0023,139.998,45.000,31611.33110,1.92188,402.414,33.309,45.070,45.000,0.00,0.09,-272.75,-272.81,-6,520,-944,19.0,5.4,-20.7,19.2,5.4,-20.5,5.73,2.15,-15.4,25.5
2015-11-26 01:38:00,0.0,1.91900,0.00031,401.659,0.031,0.1546,0.0019,139.999,45.000,31611.35378,1.92193,402.406,33.313,45.070,45.000,0.00,0.09,-272.74,-272.81,-5,520,-944,19.0,5.4,-20.6,19.2,5.4,-20.5,5.73,2.04,-15.4,25.5
2015-11-26 01:39:00,0.0,1.91881,0.00045,401.668,0.033,0.1544,0.0018,139.998,45.000,31613.59928,1.92174,402.417,33.314,45.070,45.000,0.00,0.09,-272.75,-272.81,-5,520,-944,19.0,5.4,-20.7,19.2,5.4,-20.5,5.73,1.83,-15.4,25.5
2015-11-26 01:40:00,0.0,1.91882,0.00042,401.694,0.029,0.1533,0.0016,139.996,45.000,31614.25603,1.92175,402.437,33.314,45.070,45.000,0.00,0.09,-272.75,-272.81,-5,520,-944,19.0,5.4,-20.7,19.2,5.4,-20.5,5.73,1.93,-15.4,25.5
2015-11-26 01:41:00,0.0,1.91841,0.00032,401.658,0.033,0.1546,0.0019,140.000,45.000,31615.87180,1.92132,402.407,33.328,45.070,45.000,0.00,0.09,-272.75,-272.80,-6,520,-944,19.0,5.4,-20.6,19.2,5.4,-20.5,5.73,2.14,-15.4,25.5
2015-11-26 01:42:00,0.0,1.91886,0.00040,401.657,0.035,0.1549,0.0013,139.996,45.000,31613.63379,1.92181,402.408,33.348,45.070,45.000,0.00,0.09,-272.75,-272.81,-6,520,-944,19.0,5.4,-20.6,19.2,5.4,-20.4,5.73,2.05,-15.4,25.5
2015-11-26 01:43:00,0.0,1.91890,0.00033,401.634,0.044,0.1561,0.0019,139.998,45.000,31612.22822,1.92182,402.389,33.360,45.070,45.000,0.00,0.09,-272.75,-272.81,-5,520,-944,19.0,5.4,-20.5,19.2,5.4,-20.4,5.73,1.83,-15.4,25.5
2015-11-26 01:44:00,0.0,1.91897,0.00047,401.615,0.037,0.1565,0.0018,139.998,45.000,31610.73861,1.92193,402.375,33.342,45.070,45.000,0.00,0.09,-272.75,-272.80,-5,520,-944,19.0,5.5,-20.4,19.3,5.5,-20.3,5.73,1.94,-15.4,25.5
2015-11-26 01:45:00,0.0,1.91869,0.00029,401.576,0.031,0.1585,0.0018,139.998,45.000,31611.25252,1.92173,402.346,33.366,45.070,45.000,0.00,0.09,-272.75,-272.80,-5,519,-944,19.0,5.5,-20.4,19.2,5.5,-20.2,5.73,2.14,-15.4,25.5